User: anonymous   Login
Location: Unspecified
(0.0000°N, 0.0000°E)
Time: 19:38:22
(UTC+00:00)
Language:

ESTCUBE 1 - Orbit

View from above orbital plane
View from above orbital plane
View from above satellite
View from above satellite

Ground track
Ground track

The orbit data is extracted from the following two-line orbital elements,

1 39161U 13021C   19341.47105456  .00000097  00000-0  23092-4 0  9993
2 39161  97.9782  63.2652 0010362 131.9805 228.2290 14.72257649353640
Epoch (UTC): 07 December 2019 11:18:19
Eccentricity: 0.0010362
inclination: 97.9782°
perigee height: 646 km
apogee height: 661 km
right ascension of ascending node: 63.2652°
argument of perigee: 131.9805°
revolutions per day: 14.72257649
mean anomaly at epoch: 228.2290°
orbit number at epoch: 35364

The dashed part of the orbit path shows where the satellite is in the earth's shadow,  

DLR